TimeAKDT,TemperatureF,Dew PointF,Humidity,Sea Level PressureIn,VisibilityMPH,Wind Direction,Wind SpeedMPH,Gust SpeedMPH,PrecipitationIn,Events,Conditions,WindDirDegrees,DateUTC
12:53 AM,46.9,46.0,97,30.26,10.0,NE,6.9,-,N/A,,Mostly Cloudy,40,2012-10-08 08:53:00
1:53 AM,46.0,45.0,96,30.25,10.0,NE,10.4,-,N/A,,Mostly Cloudy,40,2012-10-08 09:53:00
2:32 AM,46.4,46.4,100,30.25,4.0,NNE,8.1,-,N/A,,Overcast,30,2012-10-08 10:32:00
2:53 AM,46.0,45.0,96,30.24,1.8,Calm,Calm,-,N/A,,Overcast,0,2012-10-08 10:53:00
3:05 AM,44.6,44.6,100,30.24,3.0,Calm,Calm,-,N/A,,Mostly Cloudy,0,2012-10-08 11:05:00
3:18 AM,46.4,44.6,93,30.24,10.0,NNE,6.9,-,N/A,,Mostly Cloudy,20,2012-10-08 11:18:00
3:53 AM,46.0,45.0,96,30.23,7.0,Calm,Calm,-,N/A,,Overcast,0,2012-10-08 11:53:00
4:02 AM,46.4,46.4,100,30.22,1.8,Calm,Calm,-,N/A,,Overcast,0,2012-10-08 12:02:00
4:07 AM,46.4,44.6,93,30.22,1.0,Calm,Calm,-,N/A,,Overcast,0,2012-10-08 12:07:00
4:15 AM,46.4,44.6,93,30.22,0.8,Calm,Calm,-,N/A,,Mist,0,2012-10-08 12:15:00
4:29 AM,46.4,46.4,100,30.22,1.0,Calm,Calm,-,N/A,,Mist,0,2012-10-08 12:29:00
4:53 AM,46.0,45.0,96,30.22,1.0,Calm,Calm,-,N/A,,Mist,0,2012-10-08 12:53:00
5:53 AM,45.0,44.1,97,30.22,1.0,Calm,Calm,-,N/A,,Mist,0,2012-10-08 13:53:00
6:53 AM,45.0,45.0,100,30.21,1.0,Calm,Calm,-,N/A,,Overcast,0,2012-10-08 14:53:00
7:53 AM,44.1,44.1,100,30.21,1.0,Calm,Calm,-,N/A,,Overcast,0,2012-10-08 15:53:00
7:56 AM,44.6,42.8,93,30.20,0.5,Calm,Calm,-,N/A,Fog,Fog,0,2012-10-08 15:56:00
8:53 AM,43.0,43.0,100,30.22,0.2,Calm,Calm,-,N/A,Fog,Fog,0,2012-10-08 16:53:00
9:53 AM,43.0,43.0,100,30.22,0.2,Calm,Calm,-,N/A,Fog,Fog,0,2012-10-08 17:53:00
10:53 AM,43.0,43.0,100,30.22,0.2,South,3.5,-,N/A,Fog,Fog,180,2012-10-08 18:53:00
11:04 AM,42.8,42.8,100,30.22,1.0,Calm,Calm,-,N/A,,Overcast,0,2012-10-08 19:04:00
11:53 AM,45.0,44.1,97,30.22,1.0,SSE,3.5,-,N/A,,Overcast,160,2012-10-08 19:53:00
12:28 PM,44.6,44.6,100,30.21,2.0,Calm,Calm,-,N/A,,Overcast,0,2012-10-08 20:28:00
12:53 PM,45.0,44.1,97,30.21,2.0,Calm,Calm,-,N/A,,Overcast,0,2012-10-08 20:53:00
1:51 PM,46.4,44.6,93,30.20,3.0,Calm,Calm,-,N/A,,Overcast,0,2012-10-08 21:51:00
1:53 PM,46.0,44.1,93,30.21,3.0,Calm,Calm,-,N/A,,Overcast,0,2012-10-08 21:53:00
2:53 PM,46.9,45.0,93,30.21,10.0,East,3.5,-,N/A,,Overcast,80,2012-10-08 22:53:00
3:53 PM,46.9,45.0,93,30.20,10.0,Calm,Calm,-,N/A,,Overcast,0,2012-10-08 23:53:00
4:53 PM,46.9,45.0,93,30.19,10.0,Calm,Calm,-,N/A,,Overcast,0,2012-10-09 00:53:00
5:22 PM,46.4,44.6,93,30.18,6.0,East,3.5,-,N/A,,Overcast,90,2012-10-09 01:22:00
5:41 PM,46.4,44.6,93,30.18,6.0,Calm,Calm,-,N/A,,Overcast,0,2012-10-09 01:41:00
5:53 PM,46.9,45.0,93,30.18,6.0,ENE,3.5,-,N/A,,Overcast,60,2012-10-09 01:53:00
6:53 PM,46.0,46.0,100,30.18,2.0,Calm,Calm,-,N/A,,Overcast,0,2012-10-09 02:53:00
7:00 PM,46.4,46.4,100,30.18,1.0,East,3.5,-,N/A,,Overcast,100,2012-10-09 03:00:00
7:18 PM,46.4,46.4,100,30.17,0.5,Calm,Calm,-,N/A,Fog,Fog,0,2012-10-09 03:18:00
7:53 PM,46.0,46.0,100,30.18,0.5,Calm,Calm,-,N/A,Fog,Fog,0,2012-10-09 03:53:00
8:38 PM,46.4,46.4,100,30.18,1.0,Calm,Calm,-,N/A,,Overcast,0,2012-10-09 04:38:00
8:53 PM,46.0,46.0,100,30.17,2.0,Calm,Calm,-,N/A,,Overcast,0,2012-10-09 04:53:00
9:53 PM,46.0,45.0,96,30.18,3.0,Calm,Calm,-,N/A,,Overcast,0,2012-10-09 05:53:00
10:53 PM,46.0,44.1,93,30.18,4.0,Calm,Calm,-,N/A,,Overcast,0,2012-10-09 06:53:00
11:53 PM,44.6,44.6,100,30.17,4.0,Calm,Calm,-,N/A,,Overcast,0,2012-10-09 07:53:00